This demonstration page uses our WeatherBlox Daily Observations layout. Learn more.

39.29038, -76.61219

Hourly Observations for October 30, 2019

Temp ( °F °C ) Dew Point ( °F °C ) Humidity (%) Winds ( mph kmh ) Pressure ( in mb ) Visibility ( mi km ) Precip ( " mm )
12:54 am 00:54 undefined 59 15 53 11.7 81 81 undefined N/A 30.27 1025 N/A 0 0
1:54 am 01:54 undefined 60 15.6 53 11.7 78 78 undefined N/A 30.27 1025 N/A 0 0
2:54 am 02:54 undefined 59 15 53 11.7 81 81 undefined N/A 30.27 1025 N/A 0 0
3:54 am 03:54 undefined 59 15 52 11.1 78 78 undefined N/A 30.25 1024 N/A 0 0
4:54 am 04:54 undefined 59 15 52 11.1 78 78 undefined N/A 30.25 1025 N/A 0 0
5:54 am 05:54 undefined 59 15 52 11.1 78 78 undefined N/A 30.25 1025 N/A 0 0
6:54 am 06:54 undefined 60 15.6 52 11.1 75 75 undefined N/A 30.27 1025 N/A 0 0
7:54 am 07:54 undefined 60 15.6 53 11.7 78 78 undefined N/A 30.25 1025 N/A 0 0
8:54 am 08:54 undefined 61 16.1 54 12.2 78 78 undefined N/A 30.29 1026 N/A 0 0
9:54 am 09:54 undefined 63 17.2 55 12.8 76 76 undefined N/A 30.3 1026 N/A 0 0
10:54 am 10:54 undefined 65 18.3 55 12.8 70 70 undefined N/A 30.29 1026 N/A 0 0
11:54 am 11:54 undefined 66 18.9 56 13.3 70 70 undefined N/A 30.27 1025 N/A 0 0
12:54 pm 12:54 undefined 64 17.8 55 12.8 73 73 undefined N/A 30.23 1024 N/A 0 0
1:54 pm 13:54 undefined 65 18.3 56 13.3 73 73 undefined N/A 30.2 1023 N/A 0 0
2:54 pm 14:54 undefined 67 19.4 56 13.3 68 68 undefined N/A 30.19 1022 N/A 0 0
3:54 pm 15:54 undefined 65 18.3 55 12.8 70 70 undefined N/A 30.17 1022 N/A 0 0
4:54 pm 16:54 undefined 64 17.8 55 12.8 73 73 undefined N/A 30.16 1021 N/A 0 0
5:54 pm 17:54 undefined 63 17.2 56 13.3 78 78 undefined N/A 30.14 1021 N/A 0 0
6:54 pm 18:54 undefined 63 17.2 57 13.9 81 81 undefined N/A 30.14 1021 N/A 0 0
7:54 pm 19:54 undefined 61 16.1 58 14.4 90 90 undefined N/A 30.12 1020 N/A 0.04 1.016
8:54 pm 20:54 undefined 61 16.1 59 15 93 93 undefined N/A 30.11 1020 N/A 0.04 1.016
9:54 pm 21:54 undefined 61 16.1 59 15 93 93 undefined N/A 30.11 1020 N/A 0.08 2.032
10:54 pm 22:54 undefined 61 16.1 59 15 93 93 undefined N/A 30.1 1019 N/A 0.12 3.048
11:54 pm 23:54 undefined 61 16.1 60 15.6 97 97 undefined N/A 30.07 1018 N/A 0.07 1.778

Powered by AerisWeather